Regional Weather Roundup
Issued by NWS

Home | Current Version | Previous Version | Text Only | Print | Product List | Glossary Off
Versions: 1 2 3 4 5 6 7 8 9 10 11 12 13 14 15 16 17 18 19 20 21 22 23 24 25 26 27 28 29 30 31 32 33 34 35 36 37 38 39 40 41 42 43 44 45 46 47 48 49 50

000
ASUS43 KDMX 281206
RWRIA

WEATHER ROUNDUP FOR IOWA
NATIONAL WEATHER SERVICE DES MOINES IA
700 AM CDT SUN MAY 28 2017

NOTE: "FAIR" INDICATES FEW OR NO CLOUDS BELOW 12,000 FEET WITH NO
SIGNIFICANT WEATHER AND/OR OBSTRUCTIONS TO VISIBILITY.

* - THESE STATIONS ARE NOT NWS STATIONS...THUS NOT UNDER NWS
QUALITY CONTROL.  THEY ALSO DO NOT REPORT WEATHER SUCH
AS PRECIPITATION OR FOG.

IAZ001>003-012>014-020>022-031>034-043>046-281300-
   NORTHWEST IOWA

CITY           SKY/WX    TMP DP  RH WIND       PRES   REMARKS
CARROLL *        N/A     55  55 100 SW8       29.84S
CHEROKEE *     SUNNY     51  51 100 SW3       29.86R
DENISON *      SUNNY     54  52  94 W5        29.87S
LE MARS *      SUNNY     54  50  87 W7        29.87S
ORANGE CITY *  SUNNY     52  50  93 W6        29.86S
SHELDON *      SUNNY     52  48  87 W3        29.84S
SIOUX CITY     SUNNY     54  49  83 NW6       29.88R
6HR MIN TEMP:  48; 6HR MAX TEMP:  57; 6HR PCP: TRACE;

SPENCER        SUNNY     54  51  90 W7        29.84R
6HR MIN TEMP:  48; 6HR MAX TEMP:  56;

STORM LAKE *   SUNNY     54  50  87 W13       29.85R
$$

IAZ055>058-069>071-079>083-090>094-281300-
   SOUTHWEST IOWA

CITY           SKY/WX    TMP DP  RH WIND       PRES   REMARKS
ATLANTIC *     SUNNY     54  54 100 S5        29.87S
AUDUBON *      SUNNY     54  52  94 CALM      29.86F
CLARINDA *     SUNNY     55  55 100 W5        29.92R
COUNCIL BLFS * SUNNY     55  55 100 SW6       29.89R
CRESTON *      SUNNY     55  55 100 W7        29.88S
HARLAN  *      SUNNY     54  54 100 S5        29.90S
LAMONI         SUNNY     57  56  96 W7        29.87R
6HR MIN TEMP:  55; 6HR MAX TEMP:  57;

RED OAK *      SUNNY     57  54  88 CALM      29.89S
SHENANDOAH *   SUNNY     55  54  94 SW5       29.91R
$$

IAZ047>049-059>061-072>074-084-281300-
   CENTRAL IOWA

CITY           SKY/WX    TMP DP  RH WIND       PRES   REMARKS
AMES           SUNNY     57  54  89 W3        29.83R
6HR MIN TEMP:  53; 6HR MAX TEMP:  57;

ANKENY *       SUNNY     57  54  88 W7        29.84S
BOONE *        SUNNY     55 N/A N/A W8        29.83R
CHARITON *     SUNNY     55  54  94 W5        29.85R
DES MOINES     MOSUNNY   58  54  86 CALM      29.84R
6HR MIN TEMP:  56; 6HR MAX TEMP:  59;

GRINNELL*      CLOUDY    56  53  91 W9        29.84R
KNOXVILLE *    SUNNY     57  55  94 W8        29.83R
MARSHALLTOWN   SUNNY     56  55  97 NW5       29.82R
6HR MIN TEMP:  53; 6HR MAX TEMP:  56;

NEWTON *       SUNNY     57  55  94 W12       29.82R
PELLA *        SUNNY     58  55  89 W5        29.84R
PERRY *          N/A     55  53  93 W8        29.84S
$$

IAZ004>006-015-016-023>025-035-036-281300-
   NORTH CENTRAL IOWA

CITY           SKY/WX    TMP DP  RH WIND       PRES   REMARKS
ALGONA *       MOSUNNY   55  52  88 W12       29.82R
CLARION *      SUNNY     55  55 100 SW7       29.82R
ESTHERVILLE    SUNNY     55  51  86 W16       29.82R
6HR MIN TEMP:  51; 6HR MAX TEMP:  56;

FORT DODGE *   MOSUNNY   54  50  87 SW5       29.83S
MASON CITY     SUNNY     57  52  83 W9        29.81S
6HR MIN TEMP:  52; 6HR MAX TEMP:  60;

FOREST CITY *    N/A     55  46  71 CALM      29.81R
WEBSTER CITY * SUNNY     55  52  88 SW8       29.80S
IOWA FALLS *     N/A     57  53  88 W8        29.82S
$$

IAZ007>011-017>019-026>030-037>042-050>054-066-281300-
   NORTHEAST IOWA

CITY           SKY/WX    TMP DP  RH WIND       PRES   REMARKS
CEDAR RAPIDS   MOSUNNY   57  57 100 NW6       29.79F
6HR MIN TEMP:  54; 6HR MAX TEMP:  60; 6HR PCP:  0.02;

CHARLES CITY * SUNNY     57  55  94 W5        29.80S
DECORAH *      MOSUNNY   57  52  82 CALM      29.78S
DUBUQUE        CLOUDY    57  53  86 N6        29.79R
6HR MIN TEMP:  56; 6HR MAX TEMP:  61; 6HR PCP:  0.02;

MONTICELLO *   PTSUNNY   59  57  94 NW3       29.79S
OELWEIN *      MOSUNNY   57  55  94 W3        29.81R
WATERLOO       SUNNY     57  53  86 CALM      29.80R
6HR MIN TEMP:  50; 6HR MAX TEMP:  57;

$$

IAZ064-065-067-068-078-281300-
   EAST CENTRAL IOWA

CITY           SKY/WX    TMP DP  RH WIND       PRES   REMARKS
DAVENPORT      CLOUDY    60  56  86 N8        29.79R
6HR MIN TEMP:  59; 6HR MAX TEMP:  63;

IOWA CITY      SUNNY     60  56  86 NW6       29.81S
6HR MIN TEMP:  59; 6HR MAX TEMP:  62; 6HR PCP:  0.26;

MT. PLEASANT * PTSUNNY   59  57  95 NW7       29.81R
MUSCATINE *    CLOUDY    61  59  94 NW3       29.80R
QUAD CITIES    CLOUDY    63  56  78 VRB3      29.78R
6HR MIN TEMP:  59; 6HR MAX TEMP:  63;

$$

IAZ062-063-075>077-085>089-095>099-281300-
   SOUTHEAST IOWA

CITY           SKY/WX    TMP DP  RH WIND       PRES   REMARKS
BURLINGTON     CLOUDY    60  58  92 NW5       29.80R
6HR MIN TEMP:  59; 6HR MAX TEMP:  64;

FAIRFIELD *    MOSUNNY   57  54  88 NW8       29.82R
FORT MADISON * CLOUDY    61  59  94 NW7       29.81R
KEOKUK *       CLOUDY    59  57  94 NW6       29.80R FOG
OSKALOOSA *      N/A     57  53  88 NW8       29.83R
CENTERVILLE *    N/A     57  54  88 CALM      29.86R
OTTUMWA        SUNNY     57  54  89 W5        29.82R
6HR MIN TEMP:  53; 6HR MAX TEMP:  59; 6HR PCP: TRACE;

WASHINGTON *   MOSUNNY   59  57  94 NW9       29.82R
$$

ABBREVIATIONS USED IN REMARKS
   TC - TEMPERATURES IN CELSIUS
  WCI - WIND CHILL INDEX
   HX - HEAT INDEX
  VSB - VISIBILITY
$$





USA.gov is the U.S. government's official web portal to all federal, state and local government web resources and services.